False Pass, AK

10:08 PM AKDT on August 25, 2016 (GMT -0800)
False Pass

Weather History for PAKF - February, 2014

Change the Weather History Date:

Thursday, February 27, 2014

  Actual Average (PACD) Record (PACD)
Temperature  
Mean Temperature 37 °F 30 °F  
Max Temperature 33 °F 34 °F 47 °F (2009)
Min Temperature 33 °F 25 °F -1 °F (1954)
Degree Days  
Heating Degree Days 28 35  
Month to date heating degree days 973  
Since 1 July heating degree days 6189  
Cooling Degree Days 0    
Month to date cooling degree days  
Year to date cooling degree days  
Moisture  
Dew Point 33 °F    
Average Humidity 86    
Maximum Humidity 100    
Minimum Humidity 65    
Precipitation  
Precipitation 0.12 in 0.10 in 2.75 in (1996)
Month to date precipitation 2.88  
Year to date precipitation 6.04  
Snow  
Snow 0.00 in 0.40 in 6.30 in (2002)
Month to date snowfall 12.4  
Since 1 July snowfall 51.7  
Snow Depth -    
Sea Level Pressure  
Sea Level Pressure 29.57 in    
Wind  
Wind Speed 3 mph (WSW)    
Max Wind Speed 17 mph    
Max Gust Speed 28 mph    
Visibility 9 miles    
Events Rain , Snow    
T = Trace of Precipitation, MM = Missing Value Source: NWS Daily Summary

Daily Weather History Graph

Daily Weather History Graph

Search for Another Location

Airport or City:

Trip Planner

Search our weather history database for the weather conditions in past years. The results will help you decide how hot, cold, wet, or windy it might be!

Date:

Astronomy

Feb. 27, 2014 Rise Set
Actual Time 7:47 AM HST 6:26 PM HST
Civil Twilight 7:11 AM HST 7:02 PM HST
Nautical Twilight 6:29 AM HST 7:44 PM HST
Astronomical Twilight 5:47 AM HST 8:26 PM HST
Moon 6:39 AM HST (2/27) 4:59 PM HST (2/27)
Length of Visible Light 11h 51m
Length of Day
10h 38m
Waning Crescent, 3% of the Moon is Illuminated
Feb 27
Waning Crescent
Feb 28
New
Mar 8
First Quarter
Mar 16
Full
Mar 23
Last Quarter

Hourly Weather History & Observations

Time (HST) Temp. Windchill Dew Point Humidity Pressure Visibility Wind Dir Wind Speed Gust Speed Precip Events Conditions
12:01 AM 37.0 °F - 37.0 °F 100% 29.42 in 7.0 mi Calm Calm - 0.01 in Rain Light Rain
1:01 AM 37.0 °F - 36.0 °F 96% 29.43 in 10.0 mi Calm Calm - 0.02 in Rain Light Rain
2:01 AM 37.0 °F - 37.0 °F 100% 29.46 in 10.0 mi Calm Calm - 0.05 in Rain Light Rain
2:43 AM 37.4 °F - 37.4 °F 100% 29.20 in 7.0 mi Calm Calm - 0.02 in Rain Light Rain
3:01 AM 37.0 °F - 36.0 °F 96% 29.48 in 8.0 mi Calm Calm - 0.03 in Rain Light Rain
4:01 AM 36.0 °F - 36.0 °F 100% 29.50 in 10.0 mi Calm Calm - 0.01 in Rain Light Rain
4:37 AM 37.4 °F 32.1 °F 35.6 °F 93% 29.23 in 10.0 mi West 6.9 mph - 0.01 in Rain Light Rain
5:01 AM 36.0 °F - 35.1 °F 97% 29.52 in 10.0 mi Calm Calm - 0.01 in Rain Light Rain
5:39 AM 37.4 °F - 35.6 °F 93% 29.25 in 10.0 mi Calm Calm - 0.00 in Rain Light Rain
5:48 AM 37.4 °F 34.9 °F 35.6 °F 93% 29.25 in 10.0 mi ENE 3.5 mph - 0.00 in   Overcast
6:01 AM 37.9 °F 33.5 °F 35.1 °F 89% 29.53 in 10.0 mi NE 5.8 mph - 0.00 in   Overcast
7:01 AM 37.0 °F 33.3 °F 36.0 °F 96% 29.55 in 10.0 mi Variable 4.6 mph - 0.00 in Rain Light Rain
8:01 AM 39.0 °F 34.8 °F 33.1 °F 79% 29.57 in 10.0 mi Variable 5.8 mph - 0.00 in Rain Light Rain
9:01 AM 39.0 °F 29.9 °F 30.9 °F 73% 29.58 in 10.0 mi West 17.3 mph 27.6 mph 0.00 in Rain Light Rain
10:01 AM 39.9 °F 32.5 °F 30.9 °F 70% 29.60 in 10.0 mi West 12.7 mph 26.5 mph 0.00 in Rain Light Rain
11:01 AM 39.9 °F 32.1 °F 30.0 °F 68% 29.62 in 10.0 mi West 13.8 mph 25.3 mph 0.00 in   Overcast
12:01 PM 41.0 °F 34.3 °F 30.0 °F 65% 29.64 in 10.0 mi WSW 11.5 mph 23.0 mph N/A   Overcast
1:01 PM 41.0 °F 35.8 °F 30.0 °F 65% 29.66 in 10.0 mi WSW 8.1 mph - N/A   Overcast
2:01 PM 39.9 °F 36.7 °F 34.0 °F 79% 29.69 in 10.0 mi Variable 4.6 mph - N/A   Overcast
3:01 PM 39.9 °F 35.8 °F 33.1 °F 77% 29.70 in 10.0 mi East 5.8 mph - 0.00 in Rain Light Rain
4:01 PM 39.9 °F 32.9 °F 30.0 °F 68% 29.72 in 10.0 mi West 11.5 mph - 0.00 in   Overcast
5:01 PM 39.0 °F 32.3 °F 30.0 °F 70% 29.74 in 10.0 mi West 10.4 mph - N/A   Overcast
6:01 PM 37.9 °F 31.5 °F 30.0 °F 73% 29.78 in 10.0 mi SW 9.2 mph 24.2 mph N/A   Overcast
7:01 PM 37.9 °F - 30.0 °F 73% 29.81 in 10.0 mi Calm Calm - N/A   Overcast
8:01 PM 37.0 °F 32.4 °F 30.9 °F 79% 29.83 in 10.0 mi East 5.8 mph - N/A   Overcast
9:01 PM 35.6 °F - 33.8 °F 93% 29.58 in 10.0 mi Calm Calm - N/A   Overcast
9:37 PM 35.6 °F - 33.8 °F 93% 29.61 in 8.0 mi Calm Calm - 0.00 in   Overcast
9:46 PM 35.6 °F 31.7 °F 33.8 °F 93% 29.61 in 6.0 mi East 4.6 mph - 0.00 in   Overcast
10:01 PM 35.1 °F 31.0 °F 34.0 °F 96% 29.91 in 4.0 mi ENE 4.6 mph - 0.00 in   Overcast
11:01 PM 33.8 °F - 32.0 °F 93% 29.65 in 2.0 mi Calm Calm - 0.02 in Snow Light Snow
11:27 PM 33.8 °F - 32.0 °F 93% 29.65 in 7.0 mi Calm Calm - 0.03 in Rain Light Rain